loading
|

THOR ABLESTAR DEB, 480

Orbit data source: Space-Track

THOR ABLESTAR DEB, 480 is space debris in LEO originally from a launch on Thu, 29 Jun 1961 UTC launched from the Air Force Eastern Test Range (AFETR). Debris objects in space refer to the collection of defunct objects orbiting the Earth. Examples of debris include non-operational satellites, rocket bodies, and fragments generated from explosions, collisions, or faulty payload assembly.

Loading next visibility...
Loading greatness...
THOR ABLESTAR DEB details
Identifier
480, 1961-015FS
Orbit
LEO
Last TLE update14 hours ago
Origin
Flag of USUSAF SSD (US)
ManufacturerUnknown
Mission statusUnknown
MissionUnknown
Bus & MotorUnknown
MassUnknown
Launch date (UTC)
1961-06-29 (63 years ago)
Launch vehicleUnknown
Launch site
Air Force Eastern Test Range (AFETR)
Object type
Payload
Rocket body
Debris
Radar Cross SectionSmall (<0.1 m²)

Expand to show TLE details & history

TLE from 14 hours ago
0 THOR ABLESTAR DEB
1 00480U 61015FS  24258.64124424  .00010529  00000-0  33388-2 0  9997
2 00480  66.2413 358.1887 0084808 195.0788 164.7782 14.38264554262548
Epoch: 2024-09-14T15:23Z
Definitive object data (Epoch: 2024-09-14T15:23:23.502Z)
Latitude0.00002°
Longitude133.24474°
Altitude824.806 km
Speed7.411 km/s
True Right ascension23h 52m 45s
True Declination0° 00' 00"
Sunlit
Object was in full shadow at TLE epoch
Predictive object data (real-time)
Latitude-45.52296°
Longitude-21.89642°
Altitude731.859 km
Speed7.514 km/s
Apparent Right ascension12h 00m 24s
Apparent Declination-45° 05' 49"
Sunlit
Object is in daylight
Predictive observer data (real-time)
Local Sidereal Time22:26:50
Azimuth245.532° WSW
Elevation-72.067°
Doppler factor1
Orbital elements
Apogee823.22 km
Perigee702.101 km
Semi-major axis7,140.798 km
Eccentricity0.0084808
Inclination66.2413°
RAAN358.1887°
Arg. of periapsis195.0788°
True anomaly165.03077°
Mean anomaly164.7782°
Eccentric anomaly164.90474°
Mean motion3.59686 °/min
BSTAR0.0033388
Period100.09 mins
No data available

THOR ABLESTAR DEB Visibility forecast

Observer location: 39.9160978°, -105.1181434

THOR ABLESTAR DEB is not visible in the next 10 days
Span
Click to sort rows by Start time (UTC) header in descending order
Start Az.
Max El. time (UTC)
Max El. Az.
Max El.
End time (UTC)
End Az.